| time (UTC) | temp C | wind direction | speed KPH | gust KPH | rain 1hr cm | rain 24hr cm | rain mn cm | humidity % | barometer mb |
| 20260508135513 | 13 | 0 | 0.0 | 4.8 | 0.00 | 0.00 | 0.00 | 55 | 1014.4 |
| 20260508135016 | 13 | 0 | 0.0 | 4.8 | 0.00 | 0.00 | 0.00 | 55 | 1014.4 |
| 20260508134530 | 13 | 249 | 0.0 | 4.8 | 0.00 | 0.00 | 0.00 | 57 | 1014.4 |
| 20260508134011 | 13 | 0 | 0.0 | 6.4 | 0.00 | 0.00 | 0.00 | 56 | 1014.5 |
| 20260508133511 | 13 | 0 | 0.0 | 6.4 | 0.00 | 0.00 | 0.00 | 56 | 1014.5 |
| 20260508133045 | 13 | 142 | 0.0 | 6.4 | 0.00 | 0.00 | 0.00 | 56 | 1014.3 |
| 20260508132512 | 13 | 0 | 1.6 | 6.4 | 0.00 | 0.00 | 0.00 | 55 | 1014.3 |
| 20260508132011 | 13 | 0 | 1.6 | 6.4 | 0.00 | 0.00 | 0.00 | 55 | 1014.4 |
| 20260508131529 | 13 | 0 | 0.0 | 4.8 | 0.00 | 0.00 | 0.00 | 58 | 1014.3 |
| 20260508131010 | 13 | 263 | 1.6 | 4.8 | 0.00 | 0.00 | 0.00 | 57 | 1014.3 |
| 20260508130510 | 12 | 147 | 0.0 | 9.7 | 0.00 | 0.00 | 0.00 | 61 | 1014.3 |
| 20260508130033 | 12 | 0 | 0.0 | 9.7 | 0.00 | 0.00 | 0.00 | 62 | 1014.2 |
| 20260508125514 | 11 | 108 | 1.6 | 9.7 | 0.00 | 0.00 | 0.00 | 63 | 1014.3 |
| 20260508125012 | 11 | 0 | 0.0 | 6.4 | 0.00 | 0.00 | 0.00 | 64 | 1014.4 |
| 20260508124535 | 11 | 212 | 1.6 | 6.4 | 0.00 | 0.00 | 0.00 | 63 | 1014.2 |
| 20260508124012 | 11 | 0 | 0.0 | 6.4 | 0.00 | 0.00 | 0.00 | 64 | 1014.2 |
| 20260508123513 | 11 | 210 | 1.6 | 6.4 | 0.00 | 0.00 | 0.00 | 63 | 1014.0 |
| 20260508123043 | 11 | 0 | 0.0 | 4.8 | 0.00 | 0.00 | 0.00 | 63 | 1014.2 |
| 20260508122510 | 11 | 0 | 0.0 | 6.4 | 0.00 | 0.00 | 0.00 | 63 | 1014.1 |
| 20260508122010 | 11 | 0 | 1.6 | 6.4 | 0.00 | 0.00 | 0.00 | 63 | 1014.1 |
| 20260508121532 | 10 | 0 | 0.0 | 4.8 | 0.00 | 0.00 | 0.00 | 64 | 1014.1 |
| 20260508121010 | 11 | 0 | 0.0 | 6.4 | 0.00 | 0.00 | 0.00 | 64 | 1014.1 |
| 20260508120510 | 10 | 0 | 0.0 | 8.0 | 0.00 | 0.00 | 0.00 | 65 | 1014.3 |
| 20260508120035 | 10 | 203 | 1.6 | 8.0 | 0.00 | 0.00 | 0.00 | 66 | 1014.3 |
| 20260508115511 | 10 | 0 | 1.6 | 6.4 | 0.00 | 0.00 | 0.00 | 66 | 1014.1 |
| 20260508115011 | 10 | 222 | 0.0 | 6.4 | 0.00 | 0.00 | 0.00 | 68 | 1014.3 |
| 20260508114528 | 9 | 176 | 1.6 | 6.4 | 0.00 | 0.00 | 0.00 | 69 | 1014.1 |
| 20260508114010 | 8 | 241 | 0.0 | 9.7 | 0.00 | 0.00 | 0.00 | 72 | 1014.1 |
| 20260508113512 | 8 | 157 | 1.6 | 9.7 | 0.00 | 0.00 | 0.00 | 72 | 1014.0 |
| 20260508113028 | 8 | 169 | 1.6 | 9.7 | 0.00 | 0.00 | 0.00 | 74 | 1013.9 |
| 20260508112511 | 7 | 177 | 0.0 | 3.2 | 0.00 | 0.00 | 0.00 | 78 | 1014.0 |
| 20260508112012 | 7 | 157 | 0.0 | 1.6 | 0.00 | 0.00 | 0.00 | 80 | 1013.9 |
| 20260508111536 | 6 | 152 | 0.0 | 0.0 | 0.00 | 0.00 | 0.00 | 83 | 1013.9 |
| 20260508111013 | 6 | 0 | 0.0 | 0.0 | 0.00 | 0.00 | 0.00 | 83 | 1013.9 |
| 20260508110510 | 5 | 0 | 0.0 | 0.0 | 0.00 | 0.00 | 0.00 | 83 | 1013.9 |
| 20260508110029 | 5 | 0 | 0.0 | 0.0 | 0.00 | 0.00 | 0.00 | 83 | 1013.7 |
| 20260508105511 | 5 | 0 | 0.0 | 0.0 | 0.00 | 0.00 | 0.00 | 83 | 1013.7 |
| 20260508105011 | 5 | 0 | 0.0 | 0.0 | 0.00 | 0.00 | 0.00 | 83 | 1013.7 |
| 20260508104530 | 5 | 0 | 0.0 | 0.0 | 0.00 | 0.00 | 0.00 | 84 | 1013.6 |
| 20260508104012 | 5 | 0 | 0.0 | 0.0 | 0.00 | 0.00 | 0.00 | 84 | 1013.6 |
| 20260508103512 | 5 | 0 | 0.0 | 0.0 | 0.00 | 0.00 | 0.00 | 84 | 1013.6 |
| 20260508103032 | 5 | 0 | 0.0 | 0.0 | 0.00 | 0.00 | 0.00 | 85 | 1013.6 |
| 20260508102511 | 5 | 0 | 0.0 | 0.0 | 0.00 | 0.00 | 0.00 | 85 | 1013.5 |
| 20260508102010 | 5 | 0 | 0.0 | 0.0 | 0.00 | 0.00 | 0.00 | 84 | 1013.4 |
| 20260508101530 | 5 | 0 | 0.0 | 0.0 | 0.00 | 0.00 | 0.00 | 84 | 1013.5 |
| 20260508101010 | 5 | 0 | 0.0 | 0.0 | 0.00 | 0.00 | 0.00 | 83 | 1013.5 |
| 20260508100511 | 5 | 0 | 0.0 | 0.0 | 0.00 | 0.00 | 0.00 | 83 | 1013.4 |
| 20260508100027 | 5 | 0 | 0.0 | 0.0 | 0.00 | 0.00 | 0.00 | 83 | 1013.5 |
| 20260508095509 | 5 | 0 | 0.0 | 1.6 | 0.00 | 0.00 | 0.00 | 83 | 1013.5 |
| 20260508095012 | 5 | 0 | 0.0 | 1.6 | 0.00 | 0.00 | 0.00 | 83 | 1013.5 |
| 20260508094531 | 5 | 0 | 0.0 | 1.6 | 0.00 | 0.00 | 0.00 | 83 | 1013.5 |
| 20260508094009 | 5 | 0 | 0.0 | 0.0 | 0.00 | 0.00 | 0.00 | 82 | 1013.6 |
| 20260508093511 | 5 | 0 | 0.0 | 0.0 | 0.00 | 0.00 | 0.00 | 82 | 1013.5 |
| 20260508093031 | 5 | 0 | 0.0 | 0.0 | 0.00 | 0.00 | 0.00 | 82 | 1013.6 |
| 20260508092509 | 5 | 0 | 0.0 | 0.0 | 0.00 | 0.00 | 0.00 | 82 | 1013.5 |
| 20260508092010 | 5 | 0 | 0.0 | 0.0 | 0.00 | 0.00 | 0.00 | 81 | 1013.7 |
| 20260508091528 | 5 | 0 | 0.0 | 0.0 | 0.00 | 0.00 | 0.00 | 81 | 1013.7 |
| 20260508091012 | 5 | 0 | 0.0 | 0.0 | 0.00 | 0.00 | 0.00 | 82 | 1013.7 |
| 20260508090509 | 5 | 0 | 0.0 | 0.0 | 0.00 | 0.00 | 0.00 | 81 | 1013.7 |
| 20260508090045 | 5 | 0 | 0.0 | 0.0 | 0.00 | 0.00 | 0.00 | 81 | 1013.8 |
| 20260508085509 | 6 | 0 | 0.0 | 1.6 | 0.00 | 0.00 | 0.00 | 81 | 1013.7 |
| 20260508085009 | 6 | 0 | 0.0 | 1.6 | 0.00 | 0.00 | 0.00 | 81 | 1013.8 |
| 20260508084527 | 6 | 0 | 0.0 | 1.6 | 0.00 | 0.00 | 0.00 | 80 | 1013.7 |
| 20260508084012 | 6 | 0 | 0.0 | 3.2 | 0.00 | 0.00 | 0.00 | 80 | 1013.7 |
| 20260508083509 | 6 | 0 | 0.0 | 3.2 | 0.00 | 0.00 | 0.00 | 81 | 1013.7 |
| 20260508083030 | 6 | 0 | 0.0 | 3.2 | 0.00 | 0.00 | 0.00 | 81 | 1013.7 |
| 20260508082511 | 6 | 0 | 0.0 | 0.0 | 0.00 | 0.00 | 0.00 | 80 | 1013.7 |
| 20260508082011 | 6 | 0 | 0.0 | 0.0 | 0.00 | 0.00 | 0.00 | 80 | 1013.7 |
| 20260508081532 | 6 | 0 | 0.0 | 0.0 | 0.00 | 0.00 | 0.00 | 79 | 1013.7 |
| 20260508081009 | 6 | 0 | 0.0 | 0.0 | 0.00 | 0.00 | 0.00 | 78 | 1013.7 |
| 20260508080517 | 6 | 0 | 0.0 | 0.0 | 0.00 | 0.00 | 0.00 | 77 | 1013.7 |
| 20260508080030 | 7 | 0 | 0.0 | 0.0 | 0.00 | 0.00 | 0.00 | 77 | 1013.8 |
| 20260508075511 | 7 | 0 | 0.0 | 0.0 | 0.00 | 0.00 | 0.00 | 76 | 1013.7 |
| 20260508075011 | 7 | 0 | 0.0 | 0.0 | 0.00 | 0.00 | 0.00 | 75 | 1013.8 |
| 20260508074528 | 7 | 0 | 0.0 | 0.0 | 0.00 | 0.00 | 0.00 | 74 | 1013.8 |
| 20260508074011 | 7 | 0 | 0.0 | 0.0 | 0.00 | 0.00 | 0.00 | 73 | 1013.8 |
| 20260508073511 | 8 | 0 | 0.0 | 0.0 | 0.00 | 0.00 | 0.00 | 73 | 1013.9 |
| 20260508073030 | 8 | 0 | 0.0 | 1.6 | 0.00 | 0.00 | 0.00 | 72 | 1013.9 |
| 20260508072512 | 8 | 0 | 0.0 | 3.2 | 0.00 | 0.00 | 0.00 | 72 | 1013.9 |
| 20260508072013 | 8 | 0 | 0.0 | 3.2 | 0.00 | 0.00 | 0.00 | 71 | 1014.0 |
| 20260508071529 | 8 | 290 | 0.0 | 3.2 | 0.00 | 0.00 | 0.00 | 70 | 1014.0 |
| 20260508071013 | 8 | 143 | 0.0 | 1.6 | 0.00 | 0.00 | 0.00 | 71 | 1014.1 |
| 20260508070513 | 8 | 144 | 0.0 | 1.6 | 0.00 | 0.00 | 0.00 | 71 | 1014.1 |
| 20260508070030 | 8 | 0 | 0.0 | 1.6 | 0.00 | 0.00 | 0.00 | 70 | 1014.2 |
| 20260508065509 | 8 | 162 | 0.0 | 1.6 | 0.00 | 0.00 | 0.00 | 71 | 1014.3 |
| 20260508065013 | 8 | 131 | 0.0 | 1.6 | 0.00 | 0.00 | 0.00 | 70 | 1014.3 |
| 20260508064532 | 8 | 0 | 0.0 | 0.0 | 0.00 | 0.00 | 0.00 | 70 | 1014.4 |
| 20260508064010 | 8 | 0 | 0.0 | 0.0 | 0.00 | 0.00 | 0.00 | 70 | 1014.3 |
| 20260508063511 | 8 | 0 | 0.0 | 0.0 | 0.00 | 0.00 | 0.00 | 70 | 1014.4 |
| 20260508063035 | 8 | 0 | 0.0 | 0.0 | 0.00 | 0.00 | 0.00 | 70 | 1014.4 |
| 20260508062511 | 8 | 0 | 0.0 | 0.0 | 0.00 | 0.00 | 0.00 | 69 | 1014.4 |
| 20260508062010 | 8 | 0 | 0.0 | 0.0 | 0.00 | 0.00 | 0.00 | 69 | 1014.4 |
| 20260508061536 | 8 | 0 | 0.0 | 0.0 | 0.00 | 0.00 | 0.00 | 69 | 1014.3 |
| 20260508061014 | 8 | 0 | 0.0 | 0.0 | 0.00 | 0.00 | 0.00 | 67 | 1014.2 |
| 20260508060509 | 8 | 0 | 0.0 | 0.0 | 0.00 | 0.00 | 0.00 | 68 | 1014.3 |
| 20260508060032 | 8 | 0 | 0.0 | 3.2 | 0.00 | 0.00 | 0.00 | 68 | 1014.1 |
| 20260508055510 | 8 | 0 | 0.0 | 3.2 | 0.00 | 0.00 | 0.00 | 68 | 1014.0 |
| 20260508055012 | 8 | 211 | 0.0 | 3.2 | 0.00 | 0.00 | 0.00 | 68 | 1014.0 |
| 20260508054534 | 8 | 195 | 0.0 | 3.2 | 0.00 | 0.00 | 0.00 | 69 | 1013.9 |
| 20260508054013 | 8 | 110 | 0.0 | 3.2 | 0.00 | 0.00 | 0.00 | 68 | 1013.9 |
| 20260508053510 | 8 | 0 | 0.0 | 3.2 | 0.00 | 0.00 | 0.00 | 69 | 1014.1 |
| 20260508053033 | 8 | 213 | 0.0 | 3.2 | 0.00 | 0.00 | 0.00 | 69 | 1014.0 |
| 20260508052511 | 8 | 0 | 0.0 | 3.2 | 0.00 | 0.00 | 0.00 | 69 | 1014.1 |
| 20260508052012 | 8 | 206 | 0.0 | 3.2 | 0.00 | 0.00 | 0.00 | 69 | 1014.1 |
| 20260508051529 | 8 | 0 | 0.0 | 1.6 | 0.00 | 0.00 | 0.00 | 68 | 1014.0 |
| 20260508051016 | 8 | 0 | 0.0 | 1.6 | 0.00 | 0.00 | 0.00 | 69 | 1014.0 |
| 20260508050510 | 8 | 0 | 0.0 | 0.0 | 0.00 | 0.00 | 0.00 | 69 | 1014.1 |
| 20260508050030 | 8 | 0 | 0.0 | 0.0 | 0.00 | 0.00 | 0.00 | 71 | 1014.1 |
| 20260508045512 | 8 | 0 | 0.0 | 0.0 | 0.00 | 0.00 | 0.00 | 72 | 1014.1 |
| 20260508045011 | 8 | 0 | 0.0 | 0.0 | 0.00 | 0.00 | 0.00 | 72 | 1014.2 |
| 20260508044528 | 8 | 0 | 0.0 | 0.0 | 0.00 | 0.00 | 0.00 | 72 | 1014.2 |
| 20260508044012 | 8 | 0 | 0.0 | 0.0 | 0.00 | 0.00 | 0.00 | 72 | 1014.3 |
| 20260508043509 | 8 | 0 | 0.0 | 0.0 | 0.00 | 0.00 | 0.00 | 72 | 1014.3 |
| 20260508043029 | 7 | 0 | 0.0 | 0.0 | 0.00 | 0.00 | 0.00 | 73 | 1014.3 |
| 20260508042511 | 7 | 0 | 0.0 | 0.0 | 0.00 | 0.00 | 0.00 | 74 | 1014.3 |
| 20260508042012 | 7 | 0 | 0.0 | 0.0 | 0.00 | 0.00 | 0.00 | 73 | 1014.3 |
| 20260508041530 | 7 | 0 | 0.0 | 0.0 | 0.00 | 0.00 | 0.00 | 73 | 1014.3 |
| 20260508041012 | 7 | 0 | 0.0 | 0.0 | 0.00 | 0.00 | 0.00 | 73 | 1014.2 |
| 20260508040514 | 7 | 0 | 0.0 | 0.0 | 0.00 | 0.00 | 0.00 | 72 | 1014.1 |
| 20260508040029 | 7 | 0 | 0.0 | 0.0 | 0.00 | 0.00 | 0.00 | 71 | 1014.0 |
| 20260508035512 | 7 | 0 | 0.0 | 0.0 | 0.00 | 0.00 | 0.00 | 70 | 1013.9 |
| 20260508035012 | 8 | 0 | 0.0 | 0.0 | 0.00 | 0.00 | 0.00 | 70 | 1014.0 |
| 20260508034540 | 8 | 0 | 0.0 | 0.0 | 0.00 | 0.00 | 0.00 | 71 | 1014.1 |
| 20260508034009 | 8 | 0 | 0.0 | 0.0 | 0.00 | 0.00 | 0.00 | 71 | 1014.1 |
| 20260508033509 | 8 | 0 | 0.0 | 0.0 | 0.00 | 0.00 | 0.00 | 70 | 1014.0 |
| 20260508033030 | 7 | 0 | 0.0 | 0.0 | 0.00 | 0.00 | 0.00 | 71 | 1014.0 |
| 20260508032510 | 7 | 0 | 0.0 | 0.0 | 0.00 | 0.00 | 0.00 | 71 | 1014.0 |
| 20260508032011 | 7 | 0 | 0.0 | 0.0 | 0.00 | 0.00 | 0.00 | 71 | 1014.0 |
| 20260508031534 | 7 | 0 | 0.0 | 0.0 | 0.00 | 0.00 | 0.00 | 70 | 1014.1 |
| 20260508031011 | 7 | 0 | 0.0 | 0.0 | 0.00 | 0.00 | 0.00 | 70 | 1014.1 |
| 20260508030511 | 7 | 0 | 0.0 | 0.0 | 0.00 | 0.00 | 0.00 | 70 | 1014.2 |
| 20260508030030 | 7 | 0 | 0.0 | 0.0 | 0.00 | 0.00 | 0.00 | 68 | 1014.2 |
| 20260508025511 | 7 | 0 | 0.0 | 0.0 | 0.00 | 0.00 | 0.00 | 67 | 1014.2 |
| 20260508025012 | 7 | 0 | 0.0 | 0.0 | 0.00 | 0.00 | 0.00 | 66 | 1014.1 |
| 20260508024552 | 8 | 0 | 0.0 | 0.0 | 0.00 | 0.00 | 0.00 | 66 | 1014.1 |
| 20260508024012 | 8 | 0 | 0.0 | 0.0 | 0.00 | 0.00 | 0.00 | 65 | 1014.1 |
| 20260508023512 | 8 | 0 | 0.0 | 0.0 | 0.00 | 0.00 | 0.00 | 65 | 1014.1 |
| 20260508023030 | 8 | 0 | 0.0 | 0.0 | 0.00 | 0.00 | 0.00 | 63 | 1014.1 |
| 20260508022514 | 8 | 0 | 0.0 | 0.0 | 0.00 | 0.00 | 0.00 | 62 | 1014.0 |
| 20260508022009 | 8 | 0 | 0.0 | 0.0 | 0.00 | 0.00 | 0.00 | 60 | 1014.0 |
| 20260508021528 | 8 | 0 | 0.0 | 0.0 | 0.00 | 0.00 | 0.00 | 62 | 1014.0 |
| 20260508021010 | 8 | 0 | 0.0 | 0.0 | 0.00 | 0.00 | 0.00 | 61 | 1014.0 |
| 20260508020511 | 8 | 0 | 0.0 | 0.0 | 0.00 | 0.00 | 0.00 | 60 | 1014.1 |
| 20260508020027 | 8 | 0 | 0.0 | 0.0 | 0.00 | 0.00 | 0.00 | 59 | 1014.0 |
| 20260508015509 | 9 | 0 | 0.0 | 0.0 | 0.00 | 0.00 | 0.00 | 58 | 1014.0 |
| 20260508015012 | 9 | 0 | 0.0 | 0.0 | 0.00 | 0.00 | 0.00 | 56 | 1014.0 |
| 20260508014527 | 10 | 0 | 0.0 | 0.0 | 0.00 | 0.00 | 0.00 | 55 | 1014.0 |
| 20260508014011 | 10 | 0 | 0.0 | 0.0 | 0.00 | 0.00 | 0.00 | 54 | 1014.0 |
| 20260508013511 | 10 | 0 | 0.0 | 0.0 | 0.00 | 0.00 | 0.00 | 53 | 1013.9 |
| 20260508013033 | 10 | 0 | 0.0 | 0.0 | 0.00 | 0.00 | 0.00 | 51 | 1014.0 |
| 20260508012512 | 11 | 0 | 0.0 | 0.0 | 0.00 | 0.00 | 0.00 | 50 | 1013.9 |
| 20260508012012 | 11 | 0 | 0.0 | 0.0 | 0.00 | 0.00 | 0.00 | 48 | 1013.8 |
| 20260508011532 | 11 | 0 | 0.0 | 1.6 | 0.00 | 0.00 | 0.00 | 48 | 1013.8 |
| 20260508011008 | 11 | 0 | 0.0 | 1.6 | 0.00 | 0.00 | 0.00 | 47 | 1013.7 |
| 20260508010511 | 11 | 238 | 0.0 | 1.6 | 0.00 | 0.00 | 0.00 | 46 | 1013.7 |
| 20260508010028 | 12 | 0 | 0.0 | 4.8 | 0.00 | 0.00 | 0.00 | 45 | 1013.7 |
| 20260508005509 | 12 | 0 | 0.0 | 4.8 | 0.00 | 0.00 | 0.00 | 46 | 1013.7 |
| 20260508005010 | 12 | 0 | 0.0 | 4.8 | 0.00 | 0.00 | 0.00 | 44 | 1013.6 |
| 20260508004541 | 12 | 285 | 0.0 | 3.2 | 0.00 | 0.00 | 0.00 | 44 | 1013.6 |
| 20260508004013 | 12 | 255 | 0.0 | 4.8 | 0.00 | 0.00 | 0.00 | 43 | 1013.5 |
| 20260508003511 | 12 | 259 | 0.0 | 4.8 | 0.00 | 0.00 | 0.00 | 43 | 1013.6 |
| 20260508003029 | 12 | 290 | 0.0 | 4.8 | 0.00 | 0.00 | 0.00 | 43 | 1013.6 |
| 20260508002509 | 12 | 0 | 0.0 | 6.4 | 0.00 | 0.00 | 0.00 | 42 | 1013.6 |
| 20260508002010 | 13 | 275 | 0.0 | 6.4 | 0.00 | 0.00 | 0.00 | 41 | 1013.4 |
| 20260508001538 | 13 | 293 | 0.0 | 4.8 | 0.00 | 0.00 | 0.00 | 41 | 1013.4 |
| 20260508001008 | 13 | 286 | 1.6 | 4.8 | 0.00 | 0.00 | 0.00 | 38 | 1013.4 |
| 20260508000509 | 13 | 357 | 1.6 | 4.8 | 0.00 | 0.00 | 0.00 | 39 | 1013.4 |
| 20260508000027 | 13 | 238 | 1.6 | 8.0 | 0.00 | 0.00 | 0.00 | 38 | 1013.2 |
| 20260507235510 | 13 | 277 | 3.2 | 8.0 | 0.00 | 0.00 | 0.00 | 38 | 1013.2 |
| 20260507235009 | 14 | 293 | 3.2 | 8.0 | 0.00 | 0.00 | 0.00 | 38 | 1013.2 |
| 20260507234534 | 14 | 279 | 1.6 | 6.4 | 0.00 | 0.00 | 0.00 | 38 | 1013.3 |
| 20260507234012 | 14 | 250 | 1.6 | 6.4 | 0.00 | 0.00 | 0.00 | 37 | 1013.2 |
| 20260507233517 | 14 | 318 | 1.6 | 9.7 | 0.00 | 0.00 | 0.00 | 36 | 1013.2 |
| 20260507233029 | 14 | 269 | 1.6 | 11.3 | 0.00 | 0.00 | 0.00 | 38 | 1013.3 |
| 20260507232512 | 14 | 283 | 3.2 | 12.9 | 0.00 | 0.00 | 0.00 | 36 | 1013.1 |
| 20260507232015 | 14 | 301 | 6.4 | 12.9 | 0.00 | 0.00 | 0.00 | 36 | 1013.1 |
| 20260507231528 | 14 | 264 | 3.2 | 11.3 | 0.00 | 0.00 | 0.00 | 37 | 1013.0 |
| 20260507231012 | 14 | 15 | 4.8 | 11.3 | 0.00 | 0.00 | 0.00 | 35 | 1013.0 |
| 20260507230510 | 14 | 288 | 4.8 | 16.1 | 0.00 | 0.00 | 0.00 | 35 | 1013.1 |
| 20260507230030 | 15 | 312 | 8.0 | 16.1 | 0.00 | 0.00 | 0.00 | 35 | 1013.0 |
| 20260507225511 | 15 | 43 | 4.8 | 12.9 | 0.00 | 0.00 | 0.00 | 36 | 1013.0 |
| 20260507225010 | 15 | 283 | 1.6 | 16.1 | 0.00 | 0.00 | 0.00 | 36 | 1013.1 |
| 20260507224532 | 15 | 290 | 3.2 | 16.1 | 0.00 | 0.00 | 0.00 | 35 | 1013.1 |
| 20260507224010 | 15 | 22 | 4.8 | 16.1 | 0.00 | 0.00 | 0.00 | 35 | 1013.2 |
| 20260507223512 | 15 | 309 | 6.4 | 12.9 | 0.00 | 0.00 | 0.00 | 36 | 1013.2 |
| 20260507223030 | 15 | 263 | 3.2 | 11.3 | 0.00 | 0.00 | 0.00 | 36 | 1013.2 |
| 20260507222514 | 14 | 174 | 4.8 | 19.3 | 0.00 | 0.00 | 0.00 | 37 | 1013.3 |
| 20260507222010 | 14 | 260 | 8.0 | 19.3 | 0.00 | 0.00 | 0.00 | 36 | 1013.3 |
| 20260507221536 | 15 | 283 | 6.4 | 19.3 | 0.00 | 0.00 | 0.00 | 36 | 1013.3 |
| 20260507221013 | 15 | 37 | 9.7 | 19.3 | 0.00 | 0.00 | 0.00 | 35 | 1013.3 |
| 20260507220514 | 15 | 220 | 3.2 | 12.9 | 0.00 | 0.00 | 0.00 | 34 | 1013.4 |
| 20260507220031 | 15 | 278 | 4.8 | 19.3 | 0.00 | 0.00 | 0.00 | 34 | 1013.3 |
| 20260507215513 | 15 | 252 | 6.4 | 22.5 | 0.00 | 0.00 | 0.00 | 34 | 1013.3 |
| 20260507215013 | 15 | 304 | 9.7 | 22.5 | 0.00 | 0.00 | 0.00 | 33 | 1013.2 |
| 20260507214535 | 15 | 275 | 8.0 | 22.5 | 0.00 | 0.00 | 0.00 | 33 | 1013.1 |
| 20260507214009 | 15 | 274 | 11.3 | 19.3 | 0.00 | 0.00 | 0.00 | 33 | 1013.3 |
| 20260507213516 | 15 | 238 | 6.4 | 22.5 | 0.00 | 0.00 | 0.00 | 34 | 1013.2 |
| 20260507213031 | 15 | 274 | 12.9 | 22.5 | 0.00 | 0.00 | 0.00 | 35 | 1013.2 |
| 20260507212512 | 15 | 302 | 4.8 | 20.9 | 0.00 | 0.00 | 0.00 | 38 | 1013.1 |
| 20260507212017 | 15 | 354 | 9.7 | 22.5 | 0.00 | 0.00 | 0.00 | 37 | 1013.2 |
| 20260507211528 | 15 | 262 | 8.0 | 22.5 | 0.00 | 0.00 | 0.00 | 36 | 1013.0 |
| 20260507211013 | 15 | 276 | 4.8 | 17.7 | 0.00 | 0.00 | 0.00 | 37 | 1013.0 |
| 20260507210513 | 16 | 275 | 4.8 | 17.7 | 0.00 | 0.00 | 0.00 | 36 | 1013.1 |
| 20260507210028 | 16 | 274 | 4.8 | 16.1 | 0.00 | 0.00 | 0.00 | 34 | 1013.1 |
| 20260507205513 | 15 | 233 | 6.4 | 16.1 | 0.00 | 0.00 | 0.00 | 38 | 1012.9 |
| 20260507205009 | 15 | 111 | 8.0 | 17.7 | 0.00 | 0.00 | 0.00 | 39 | 1012.9 |
| 20260507204528 | 15 | 317 | 8.0 | 17.7 | 0.00 | 0.00 | 0.00 | 36 | 1012.8 |
| 20260507204010 | 15 | 308 | 4.8 | 19.3 | 0.00 | 0.00 | 0.00 | 38 | 1012.8 |
| 20260507203510 | 15 | 268 | 4.8 | 19.3 | 0.00 | 0.00 | 0.00 | 38 | 1012.8 |
| 20260507203042 | 15 | 256 | 8.0 | 30.6 | 0.00 | 0.00 | 0.00 | 36 | 1012.8 |
| 20260507202513 | 14 | 62 | 6.4 | 30.6 | 0.00 | 0.00 | 0.00 | 37 | 1012.6 |
| 20260507202012 | 15 | 290 | 9.7 | 24.1 | 0.00 | 0.00 | 0.00 | 38 | 1012.8 |
| 20260507201533 | 14 | 2 | 6.4 | 16.1 | 0.00 | 0.00 | 0.00 | 39 | 1012.7 |
| 20260507201013 | 15 | 25 | 4.8 | 17.7 | 0.00 | 0.00 | 0.00 | 38 | 1013.0 |
| 20260507200514 | 15 | 7 | 4.8 | 20.9 | 0.00 | 0.00 | 0.00 | 38 | 1013.0 |
| 20260507200030 | 15 | 236 | 8.0 | 20.9 | 0.00 | 0.00 | 0.00 | 37 | 1012.9 |
| 20260507195542 | 15 | 238 | 4.8 | 20.9 | 0.00 | 0.00 | 0.00 | 36 | 1012.8 |
| 20260507195012 | 14 | 281 | 9.7 | 24.1 | 0.00 | 0.00 | 0.00 | 37 | 1013.0 |
| 20260507194530 | 14 | 287 | 4.8 | 24.1 | 0.00 | 0.00 | 0.00 | 38 | 1013.1 |
| 20260507194016 | 15 | 271 | 6.4 | 29.0 | 0.00 | 0.00 | 0.00 | 35 | 1013.3 |
| 20260507193510 | 15 | 246 | 9.7 | 29.0 | 0.00 | 0.00 | 0.00 | 37 | 1013.2 |
| 20260507193037 | 14 | 245 | 6.4 | 25.7 | 0.00 | 0.00 | 0.00 | 38 | 1013.2 |
| 20260507192513 | 14 | 233 | 6.4 | 25.7 | 0.00 | 0.00 | 0.00 | 40 | 1013.1 |
| 20260507192014 | 13 | 125 | 8.0 | 25.7 | 0.00 | 0.00 | 0.00 | 40 | 1013.0 |
| 20260507191535 | 14 | 275 | 8.0 | 22.5 | 0.00 | 0.00 | 0.00 | 39 | 1013.2 |
| 20260507191015 | 14 | 276 | 9.7 | 22.5 | 0.00 | 0.00 | 0.00 | 39 | 1013.2 |
| 20260507190509 | 14 | 283 | 4.8 | 17.7 | 0.00 | 0.00 | 0.00 | 41 | 1013.3 |
| 20260507190030 | 14 | 285 | 4.8 | 17.7 | 0.00 | 0.00 | 0.00 | 38 | 1013.2 |
| 20260507185510 | 14 | 291 | 6.4 | 22.5 | 0.00 | 0.00 | 0.00 | 39 | 1013.3 |
| 20260507185009 | 14 | 329 | 6.4 | 22.5 | 0.00 | 0.00 | 0.00 | 40 | 1013.2 |
| 20260507184530 | 14 | 293 | 6.4 | 22.5 | 0.00 | 0.00 | 0.00 | 42 | 1013.3 |
| 20260507184012 | 13 | 243 | 8.0 | 19.3 | 0.00 | 0.00 | 0.00 | 43 | 1013.1 |
| 20260507183511 | 14 | 284 | 8.0 | 19.3 | 0.00 | 0.00 | 0.00 | 43 | 1013.3 |
| 20260507183030 | 14 | 243 | 4.8 | 20.9 | 0.00 | 0.00 | 0.00 | 44 | 1013.4 |
| 20260507182510 | 13 | 221 | 4.8 | 27.4 | 0.00 | 0.00 | 0.00 | 46 | 1013.3 |
| 20260507182009 | 13 | 231 | 12.9 | 27.4 | 0.00 | 0.00 | 0.00 | 42 | 1013.4 |
| 20260507181530 | 13 | 245 | 8.0 | 20.9 | 0.00 | 0.00 | 0.00 | 42 | 1013.3 |
| 20260507181013 | 13 | 288 | 9.7 | 19.3 | 0.00 | 0.00 | 0.00 | 43 | 1013.4 |
| 20260507180512 | 13 | 293 | 9.7 | 19.3 | 0.00 | 0.00 | 0.00 | 41 | 1013.3 |
| 20260507180037 | 14 | 213 | 6.4 | 19.3 | 0.00 | 0.00 | 0.00 | 43 | 1013.4 |
| 20260507175511 | 13 | 312 | 6.4 | 19.3 | 0.00 | 0.00 | 0.00 | 43 | 1013.5 |
| 20260507175014 | 13 | 341 | 4.8 | 19.3 | 0.00 | 0.00 | 0.00 | 43 | 1013.5 |
| 20260507174538 | 13 | 301 | 8.0 | 19.3 | 0.00 | 0.00 | 0.00 | 43 | 1013.7 |
| 20260507174015 | 13 | 277 | 8.0 | 19.3 | 0.00 | 0.00 | 0.00 | 43 | 1013.6 |
| 20260507173516 | 13 | 288 | 9.7 | 19.3 | 0.00 | 0.00 | 0.00 | 42 | 1013.8 |
| 20260507173052 | 13 | 259 | 4.8 | 16.1 | 0.00 | 0.00 | 0.00 | 41 | 1013.8 |
| 20260507172512 | 13 | 277 | 6.4 | 22.5 | 0.00 | 0.00 | 0.00 | 41 | 1013.8 |
| 20260507172012 | 13 | 273 | 6.4 | 22.5 | 0.00 | 0.00 | 0.00 | 41 | 1013.9 |
| 20260507171529 | 13 | 235 | 6.4 | 22.5 | 0.00 | 0.00 | 0.00 | 42 | 1014.1 |
| 20260507171009 | 13 | 299 | 6.4 | 20.9 | 0.00 | 0.00 | 0.00 | 42 | 1014.2 |
| 20260507170512 | 13 | 263 | 11.3 | 17.7 | 0.00 | 0.00 | 0.00 | 40 | 1014.3 |
| 20260507170032 | 13 | 287 | 3.2 | 17.7 | 0.00 | 0.00 | 0.00 | 40 | 1014.2 |
| 20260507165516 | 13 | 239 | 9.7 | 17.7 | 0.00 | 0.00 | 0.00 | 40 | 1014.3 |
| 20260507165011 | 13 | 305 | 4.8 | 16.1 | 0.00 | 0.00 | 0.00 | 41 | 1014.3 |
| 20260507164534 | 13 | 189 | 4.8 | 16.1 | 0.00 | 0.00 | 0.00 | 39 | 1014.2 |
| 20260507164013 | 13 | 245 | 1.6 | 16.1 | 0.00 | 0.00 | 0.00 | 43 | 1014.3 |
| 20260507163514 | 13 | 248 | 8.0 | 17.7 | 0.00 | 0.00 | 0.00 | 37 | 1014.3 |
| 20260507163032 | 13 | 304 | 8.0 | 17.7 | 0.00 | 0.00 | 0.00 | 40 | 1014.2 |
| 20260507162517 | 13 | 134 | 3.2 | 14.5 | 0.00 | 0.00 | 0.00 | 42 | 1014.3 |
| 20260507162012 | 12 | 256 | 6.4 | 14.5 | 0.00 | 0.00 | 0.00 | 45 | 1014.2 |
| 20260507161540 | 12 | 243 | 8.0 | 17.7 | 0.00 | 0.00 | 0.00 | 43 | 1014.4 |
| 20260507161009 | 12 | 304 | 4.8 | 17.7 | 0.00 | 0.00 | 0.00 | 45 | 1014.2 |
| 20260507160510 | 12 | 203 | 8.0 | 16.1 | 0.00 | 0.00 | 0.00 | 44 | 1014.4 |
| 20260507160028 | 12 | 248 | 4.8 | 16.1 | 0.00 | 0.00 | 0.00 | 46 | 1014.3 |
| 20260507155515 | 13 | 310 | 3.2 | 16.1 | 0.00 | 0.00 | 0.00 | 46 | 1014.2 |
| 20260507155014 | 12 | 245 | 4.8 | 22.5 | 0.00 | 0.00 | 0.00 | 46 | 1014.2 |
| 20260507154528 | 12 | 153 | 3.2 | 22.5 | 0.00 | 0.00 | 0.00 | 46 | 1014.2 |
| 20260507154012 | 12 | 284 | 4.8 | 20.9 | 0.00 | 0.00 | 0.00 | 46 | 1014.1 |
| 20260507153512 | 12 | 316 | 8.0 | 20.9 | 0.00 | 0.00 | 0.00 | 45 | 1014.1 |
| 20260507153032 | 12 | 289 | 3.2 | 14.5 | 0.00 | 0.00 | 0.00 | 44 | 1014.1 |
| 20260507152516 | 12 | 268 | 6.4 | 14.5 | 0.00 | 0.00 | 0.00 | 44 | 1014.0 |
| 20260507152022 | 12 | 276 | 4.8 | 16.1 | 0.00 | 0.00 | 0.00 | 46 | 1014.0 |
| 20260507151530 | 12 | 266 | 6.4 | 16.1 | 0.00 | 0.00 | 0.00 | 45 | 1014.0 |
| 20260507151011 | 12 | 301 | 6.4 | 16.1 | 0.00 | 0.00 | 0.00 | 46 | 1013.8 |
| 20260507150518 | 12 | 323 | 1.6 | 9.7 | 0.00 | 0.00 | 0.00 | 46 | 1013.9 |
| 20260507150037 | 12 | 319 | 4.8 | 12.9 | 0.00 | 0.00 | 0.00 | 44 | 1014.0 |
| 20260507145510 | 12 | 0 | 0.0 | 12.9 | 0.00 | 0.00 | 0.00 | 49 | 1014.0 |
| 20260507145016 | 12 | 259 | 4.8 | 11.3 | 0.00 | 0.00 | 0.00 | 45 | 1014.2 |
| 20260507144527 | 12 | 293 | 1.6 | 14.5 | 0.00 | 0.00 | 0.00 | 46 | 1014.1 |
| 20260507144011 | 11 | 304 | 3.2 | 17.7 | 0.00 | 0.00 | 0.00 | 48 | 1014.1 |
| 20260507143512 | 11 | 287 | 8.0 | 17.7 | 0.00 | 0.00 | 0.00 | 48 | 1014.1 |
| 20260507143033 | 11 | 225 | 4.8 | 12.9 | 0.00 | 0.00 | 0.00 | 48 | 1014.0 |
| 20260507142509 | 11 | 286 | 4.8 | 12.9 | 0.00 | 0.00 | 0.00 | 50 | 1014.1 |
| 20260507142018 | 11 | 303 | 4.8 | 17.7 | 0.00 | 0.00 | 0.00 | 47 | 1014.1 |
| 20260507141545 | 11 | 276 | 8.0 | 17.7 | 0.00 | 0.00 | 0.00 | 48 | 1014.3 |
| 20260507141012 | 11 | 292 | 4.8 | 14.5 | 0.00 | 0.00 | 0.00 | 49 | 1014.2 |
| 20260507140512 | 10 | 251 | 4.8 | 14.5 | 0.00 | 0.00 | 0.00 | 48 | 1014.1 |
| 20260507140031 | 10 | 311 | 8.0 | 14.5 | 0.00 | 0.00 | 0.00 | 48 | 1014.2 |